Theta_e
298 292 288 292 293 292 289 288 286 289 292 290 289 290 294 294 295 296 297 297 297 298 301 301 303 310 318 322 324 325 326 328 328 327 325 326 326 328 328 327 326 325 325 324
294 284 290 295 295 293 290 287 285 291 293 290 288 289 292 293 294 295 296 296 297 297 298 298 300 300 305 316 320 323 325 326 327 328 328 326 326 327 328 329 328 327 326 326
287 290 295 294 292 290 287 286 285 287 291 289 286 285 287 291 291 293 294 295 295 294 295 297 297 298 299 304 314 319 322 324 326 328 325 323 321 320 320 323 325 326 326 326
290 293 292 290 288 290 285 290 290 290 287 281 285 277 285 288 290 291 293 293 292 292 293 294 295 296 297 299 301 312 318 321 324 326 325 324 324 322 325 325 324 324 324 325
288 290 290 289 289 291 285 292 290 288 285 284 281 279 283 285 288 291 291 292 292 293 293 295 295 297 297 298 298 300 303 313 320 323 326 324 323 325 325 323 322 323 324 325
291 295 293 292 294 292 292 290 289 287 284 274 280 280 278 283 286 288 291 293 293 293 293 294 295 297 296 297 297 298 299 303 307 317 322 322 321 322 322 322 321 323 324 325
290 289 293 294 290 292 290 286 276 276 276 273 279 279 281 286 287 287 290 292 292 293 294 293 294 295 297 297 299 299 299 300 301 303 306 314 319 320 320 321 323 322 322 323
279 276 290 294 291 289 289 286 278 271 273 274 281 277 281 285 288 289 290 291 293 293 294 294 294 294 295 296 299 299 300 301 302 302 302 303 303 305 310 316 319 321 322 323
280 281 288 292 293 292 288 284 287 280 269 273 278 281 285 287 287 289 289 291 291 293 293 293 294 294 295 296 298 298 299 301 302 302 303 305 305 304 303 305 307 311 314 319
285 280 286 289 293 292 291 291 283 280 270 268 276 277 278 282 286 287 288 288 290 292 293 294 295 294 294 295 296 298 299 298 299 300 301 304 305 306 307 306 306 307 310 312
287 283 282 287 285 285 286 285 285 286 281 274 271 276 282 285 287 286 287 288 289 290 291 292 294 295 294 295 295 296 296 296 297 298 299 299 301 302 303 304 305 307 308 310
289 284 275 281 287 290 290 286 285 279 278 281 279 278 287 287 288 287 287 287 288 290 291 291 292 292 294 294 293 293 294 294 294 296 297 297 297 297 297 298 299 301 302 304
288 282 276 277 281 286 285 285 288 288 286 281 278 278 287 287 285 286 287 287 288 290 290 290 290 290 292 292 291 290 292 291 291 293 293 292 291 291 292 293 295 296 297 298
290 283 277 272 276 281 281 283 284 285 279 279 280 280 285 286 285 287 286 288 288 288 289 288 288 290 289 289 287 287 289 289 288 289 289 288 287 288 289 290 290 291 293 294
282 270 277 278 281 282 281 282 282 281 281 278 279 280 283 284 285 285 285 286 286 287 287 287 289 287 286 285 284 284 285 285 285 285 285 284 285 285 286 286 287 288 289 290
283 270 272 268 277 281 278 281 281 281 281 281 280 279 284 285 283 283 284 285 285 286 287 288 287 286 285 283 282 282 282 282 283 282 282 282 282 282 283 283 284 285 286 287
281 272 265 263 271 268 266 272 278 279 280 280 276 280 283 283 283 284 284 285 285 285 286 288 285 283 282 280 280 279 280 281 280 280 280 279 279 279 280 281 281 282 283 285
276 272 266 262 262 259 274 276 278 278 281 281 281 283 283 283 284 284 285 284 286 287 288 286 283 281 280 278 277 277 279 278 278 278 278 278 277 277 279 279 279 279 281 282
281 276 263 262 256 268 273 275 275 275 275 279 279 280 281 281 282 281 285 286 287 287 286 283 280 278 277 276 276 276 278 276 276 275 275 276 276 276 277 277 277 278 279 281
281 278 268 257 258 257 271 276 278 278 269 278 279 279 280 282 277 280 283 284 286 286 282 279 277 276 275 274 274 276 275 273 273 274 274 275 275 274 275 275 276 277 278 280
272 276 273 262 258 265 276 278 279 267 271 280 281 281 281 279 281 284 283 282 283 282 279 276 275 273 272 272 272 273 272 270 272 273 273 273 273 273 274 273 274 275 276 276
266 267 262 272 269 261 278 278 275 279 281 281 280 281 281 281 282 281 281 282 281 278 276 275 273 272 270 271 270 270 269 270 271 271 271 271 271 272 272 269 271 271 271 272
268 272 268 269 270 278 279 280 282 282 280 280 280 281 280 280 281 280 280 279 277 274 274 273 271 271 269 269 269 268 268 269 270 269 269 269 268 270 271 268 270 270 270 270
275 277 274 273 277 278 280 280 281 281 280 281 280 280 279 278 279 279 278 277 274 272 271 270 269 268 267 267 267 266 267 268 267 267 268 269 269 269 270 271 272 268 268 268
276 277 274 274 278 279 280 280 281 281 281 280 277 277 277 276 276 275 274 273 271 271 270 269 268 268 266 266 266 266 267 268 269 270 270 270 270 269 270 270 271 274 275 276
277 276 274 274 279 279 279 280 281 280 278 276 275 274 275 274 273 272 272 271 270 269 268 268 266 265 263 263 264 264 264 265 265 267 268 268 268 268 268 268 268 273 275 277
Wind_Speed
2 3 7 11 1 3 2 4 2 2 3 1 3 5 12 2 4 9 9 8 8 10 10 7 8 7 8 8 10 14 13 12 8 6 6 7 9 8 8 8 10 10 10 11
3 5 4 5 1 2 3 4 1 5 1 1 4 8 11 5 6 7 8 9 10 8 9 8 8 7 7 8 10 10 12 11 11 9 7 5 5 7 7 8 10 12 13 13
4 1 3 6 5 5 2 4 2 3 5 3 6 7 5 4 2 4 7 8 7 7 11 12 9 8 7 8 7 8 9 9 10 12 3 2 1 0 1 6 8 9 12 12
2 3 2 3 3 5 3 5 4 2 3 4 2 7 6 5 8 4 8 9 8 9 8 7 10 9 9 8 6 6 6 7 7 8 8 11 10 9 9 8 6 8 10 11
4 4 4 2 4 5 5 5 5 2 3 4 5 2 8 2 5 7 9 11 10 9 8 9 8 8 7 7 7 6 4 4 5 6 10 8 10 8 7 3 5 6 7 10
3 0 4 6 2 6 6 6 6 4 3 2 6 6 5 3 3 5 9 12 11 11 9 9 8 7 7 7 8 7 7 5 4 1 5 6 7 7 5 5 5 5 5 6
3 1 2 1 5 3 2 6 2 2 1 6 3 2 8 3 5 5 5 7 8 8 10 10 12 11 12 11 8 7 9 7 7 6 4 3 5 5 6 7 7 7 5 5
5 4 6 4 4 6 7 6 5 6 4 2 2 5 1 4 7 5 2 3 6 11 10 10 9 8 8 9 9 8 8 8 8 7 7 4 4 4 4 5 5 6 7 7
4 3 2 2 3 2 4 4 5 6 3 3 3 5 7 5 7 8 9 11 11 9 9 10 10 10 12 12 10 9 9 8 8 7 6 7 6 6 6 7 6 6 7 7
2 2 2 2 4 4 2 4 3 2 2 4 3 3 6 1 5 8 14 11 11 11 12 12 11 9 8 7 8 11 11 9 8 9 7 6 6 6 5 5 6 6 7 7
2 4 2 3 1 3 1 1 4 3 3 4 1 5 5 8 4 7 8 8 8 8 8 10 10 8 7 8 11 11 13 13 14 13 11 9 8 8 7 6 7 7 6 7
1 3 2 2 2 1 3 3 3 3 4 2 1 6 6 6 4 3 5 6 8 8 8 7 7 8 11 10 10 10 10 11 12 12 11 10 10 10 10 10 11 10 10 8
3 0 3 5 5 4 4 1 2 3 2 4 2 5 4 1 3 6 9 8 8 9 10 9 8 6 7 9 10 10 10 11 11 11 10 10 10 11 11 11 11 11 11 11
3 3 4 5 2 1 4 3 3 3 1 1 5 6 7 7 9 12 10 10 10 8 8 8 7 7 6 6 7 8 9 9 11 10 10 10 11 11 10 10 10 10 10 9
4 5 3 4 3 2 2 4 4 5 3 5 2 4 6 4 6 7 6 8 10 10 9 6 7 7 7 8 9 9 8 9 10 9 9 9 10 10 9 10 11 10 9 8
4 2 3 5 7 5 4 8 4 4 2 7 4 12 3 5 3 5 8 7 8 11 10 5 4 5 6 6 8 10 10 11 10 9 10 11 11 11 11 11 11 11 11 11
4 4 4 4 5 6 7 6 6 2 2 4 5 7 3 6 4 5 6 7 8 8 8 8 6 6 5 6 7 8 9 8 8 8 9 10 11 11 12 12 12 12 12 12
3 4 4 2 4 2 5 2 4 4 7 7 8 12 9 6 5 8 7 3 5 7 7 6 5 4 3 4 5 7 6 6 6 6 8 9 10 11 11 11 12 12 11 11
3 4 4 5 3 8 6 2 6 6 10 7 8 7 7 7 5 4 3 2 6 7 5 4 1 3 5 6 7 7 6 7 7 9 9 10 10 10 10 11 11 9 8 7
4 6 6 3 5 7 6 3 2 4 7 4 4 1 6 6 9 12 4 6 9 8 1 3 5 4 5 7 8 7 7 7 9 10 10 9 9 9 8 9 10 8 7 6
3 1 4 2 3 10 9 5 1 7 7 2 4 6 7 6 6 13 8 7 6 2 3 4 5 4 4 6 7 7 6 8 10 9 8 7 8 8 8 8 5 8 8 6
7 7 5 4 3 10 7 4 6 6 2 3 4 6 8 9 10 9 9 6 6 4 4 5 5 4 5 7 6 6 6 9 8 8 7 7 7 6 6 6 6 5 6 5
2 8 6 11 10 6 6 5 5 3 5 6 4 6 8 10 10 8 6 6 4 5 4 4 4 4 4 6 6 6 7 8 8 7 5 5 5 5 6 5 6 4 5 5
5 5 4 3 8 14 10 6 6 4 5 5 3 5 6 7 7 6 5 5 3 3 3 2 3 3 4 3 4 3 5 6 5 5 5 5 5 6 5 5 3 2 2 3
6 6 5 7 11 8 9 7 5 3 3 4 4 4 5 4 6 4 5 4 3 3 3 3 3 3 3 4 4 4 6 6 6 5 4 5 4 5 5 5 3 4 4 5
7 7 6 8 7 5 7 1 1 4 4 3 4 5 3 3 5 4 5 2 3 3 3 3 3 3 4 4 5 5 5 6 7 7 6 5 5 5 5 5 5 9 10 10
Wind_Direction
129 131 188 182 237 24 145 143 185 258 25 8 233 259 276 321 285 289 287 286 271 265 267 265 272 261 235 223 206 208 209 207 196 194 200 222 228 224 224 220 219 212 213 213
79 217 209 129 180 99 62 105 196 278 4 71 347 279 277 271 241 229 266 279 277 277 311 311 286 278 254 239 228 225 220 206 203 208 213 202 190 224 225 224 218 214 214 215
153 174 175 150 156 157 164 149 193 233 346 64 344 298 307 314 269 288 264 256 292 327 301 309 310 300 293 265 246 228 230 216 210 209 173 133 92 326 212 223 229 220 218 218
230 314 103 112 178 125 209 186 161 172 85 237 20 286 310 313 317 296 292 7 342 342 336 339 341 335 334 320 317 284 265 225 213 187 197 205 217 230 232 231 218 224 210 219
225 158 143 142 190 157 202 155 169 151 95 34 347 331 272 298 303 291 33 15 3 350 358 355 357 352 344 358 2 357 343 293 267 204 210 211 227 240 256 243 230 224 221 219
148 245 133 193 150 150 145 84 51 53 90 334 209 178 275 225 357 5 20 25 11 0 354 359 348 354 357 355 1 357 359 10 8 273 222 229 235 244 255 257 247 246 236 227
171 246 346 146 85 62 96 102 30 11 8 227 334 135 243 359 9 46 58 18 354 350 7 3 3 359 356 357 4 1 7 359 2 14 3 301 276 271 263 262 264 262 254 236
133 321 183 175 175 169 184 167 152 197 191 249 354 227 205 23 95 91 73 339 10 11 3 1 360 360 356 351 358 2 7 355 355 354 343 329 289 266 260 262 268 274 270 263
127 271 351 46 29 99 188 194 153 102 19 62 220 285 47 47 34 17 15 18 9 0 350 345 349 2 357 3 359 0 2 359 3 357 357 352 348 340 318 312 307 294 289 284
206 114 6 351 70 21 111 151 92 12 148 233 253 251 187 98 45 5 12 2 351 352 358 356 354 357 350 356 359 14 13 359 345 350 356 351 342 342 326 310 303 295 294 288
182 95 318 52 54 163 49 126 55 117 148 182 213 257 214 153 123 28 351 348 340 342 341 341 347 353 2 9 18 17 17 9 3 355 349 349 349 349 346 344 335 329 318 314
52 86 128 112 62 55 106 84 142 145 217 242 191 264 149 154 136 317 327 330 325 327 328 329 339 355 12 13 9 12 13 12 1 352 356 5 7 0 359 354 347 343 337 328
156 108 69 1 13 12 94 109 150 177 193 183 185 265 206 263 355 350 356 348 332 327 329 336 356 22 10 4 4 4 6 3 357 355 360 4 6 1 353 347 344 343 338 334
96 122 147 178 187 125 145 177 206 177 180 143 234 301 274 324 4 344 338 335 337 319 305 325 350 2 5 5 357 354 359 0 350 350 357 357 354 347 342 337 337 337 335 331
82 104 74 26 329 328 212 198 200 203 195 183 11 262 281 320 293 297 308 318 331 328 326 350 347 345 352 354 353 352 354 357 349 348 351 350 341 336 335 339 336 333 333 327
8 155 99 5 356 1 295 283 265 230 215 267 298 275 250 262 255 307 306 312 309 308 322 332 333 340 345 354 346 342 344 348 349 353 352 346 345 342 344 341 340 339 339 339
51 112 63 275 346 349 334 243 229 74 167 195 253 273 345 306 297 298 277 288 305 310 310 321 341 345 344 349 341 337 330 335 343 346 348 349 345 344 344 340 341 347 342 337
117 81 63 187 15 1 240 220 170 199 244 248 275 271 293 310 306 273 278 252 298 296 300 312 324 331 346 336 335 323 327 340 343 354 349 346 341 341 338 341 346 341 338 342
1 103 83 118 181 296 338 116 139 182 268 226 231 303 329 328 340 305 321 300 314 277 269 258 318 325 340 347 336 330 344 348 356 357 350 347 344 339 341 341 336 332 328 341
79 73 107 69 127 221 236 240 12 82 302 315 147 6 305 329 325 301 248 287 280 285 309 357 4 357 6 351 341 334 358 356 358 351 344 340 344 342 343 336 331 329 329 349
56 96 207 197 232 290 245 268 346 82 245 161 31 313 290 279 233 289 303 286 283 346 39 33 16 35 19 356 351 357 358 1 341 334 333 343 344 339 345 339 340 346 348 360
161 147 202 192 217 276 181 71 167 215 244 252 278 269 281 287 296 283 300 313 341 350 22 25 12 20 17 7 1 358 2 338 326 330 339 342 333 339 347 344 349 355 6 3
294 190 184 177 210 225 199 220 211 198 256 275 258 279 281 292 290 306 311 337 3 28 19 15 5 359 30 11 17 357 340 333 329 332 333 334 335 341 337 351 358 4 5 19
252 179 224 110 242 243 247 238 234 235 256 286 285 282 282 283 306 311 323 340 354 7 2 356 357 356 344 356 2 334 320 326 317 318 326 323 338 340 342 342 333 330 7 23
201 152 208 262 270 286 271 252 264 296 315 295 311 279 290 301 299 304 310 323 337 334 336 341 334 332 328 334 330 331 330 327 322 311 321 334 336 343 342 338 312 339 343 24
181 217 198 238 231 216 261 234 75 281 287 307 311 310 315 306 304 312 300 310 329 336 347 332 333 337 327 332 323 334 341 341 336 331 343 344 341 344 344 340 331 345 354 359